GW0416 Weather Reports


time (UTC)temp
C
wind
direction
speed
KPH
gust
KPH
rain 1hr
cm
rain 24hr
cm
rain mn
cm
humidity
%
barometer
mb
20260906024534 15 24 32.2 45.1 0.00 0.00 0.00 72 1019.0
20260906023035 15 15 33.8 43.5 0.00 0.00 0.00 71 1018.8
20260906021535 15 22 35.4 45.1 0.00 0.00 0.00 70 1018.8
20260906020036 15 19 35.4 46.7 0.00 0.00 0.00 70 1018.8
20260906014535 16 19 35.4 45.1 0.00 0.00 0.00 68 1018.8
20260906013035 16 21 30.6 40.2 0.00 0.00 0.00 66 1018.7
20260906011535 17 15 25.7 40.2 0.00 0.00 0.00 63 1018.7
20260906010036 17 21 30.6 41.8 0.00 0.00 0.00 62 1018.7
20260906004537 18 29 32.2 43.5 0.00 0.00 0.00 59 1018.7
20260906003034 19 17 29.0 41.8 0.00 0.00 0.00 57 1018.8
20260906001534 19 15 32.2 40.2 0.00 0.00 0.00 56 1018.7
20260906000039 20 15 27.4 40.2 0.00 0.00 0.00 54 1018.8
20260905234537 20 5 27.4 38.6 0.00 0.00 0.00 52 1019.0
20260905233033 21 46 22.5 35.4 0.00 0.00 0.00 47 1018.9
20260905231538 21 15 25.7 37.0 0.00 0.00 0.00 48 1018.8
20260905230036 21 23 27.4 37.0 0.00 0.00 0.00 47 1018.7
20260905224607 21 9 29.0 40.2 0.00 0.00 0.00 47 1018.6
20260905223043 22 20 16.1 30.6 0.00 0.00 0.00 43 1018.6
20260905221537 22 32 16.1 29.0 0.00 0.00 0.00 43 1018.8
20260905220033 22 43 24.1 32.2 0.00 0.00 0.00 43 1018.8
20260905214538 22 44 12.9 17.7 0.00 0.00 0.00 41 1018.9
20260905213041 22 12 4.8 12.9 0.00 0.00 0.00 43 1019.1
20260905211542 22 342 11.3 17.7 0.00 0.00 0.00 41 1019.3
20260905210047 21 302 12.9 22.5 0.00 0.00 0.00 40 1019.1
20260905204539 21 300 8.0 20.9 0.00 0.00 0.00 40 1019.2
20260905203038 21 305 14.5 25.7 0.00 0.00 0.00 39 1019.4
20260905201535 21 44 14.5 22.5 0.00 0.00 0.00 40 1019.5
20260905200036 20 329 14.5 29.0 0.00 0.00 0.00 42 1019.7
20260905194541 20 355 17.7 27.4 0.00 0.00 0.00 43 1019.7
20260905193037 20 340 14.5 30.6 0.00 0.00 0.00 43 1019.6
20260905191536 20 313 12.9 30.6 0.00 0.00 0.00 43 1019.9
20260905190035 20 300 8.0 24.1 0.00 0.00 0.00 44 1020.2
20260905184547 20 344 16.1 24.1 0.00 0.00 0.00 44 1020.2
20260905183034 19 315 9.7 20.9 0.00 0.00 0.00 48 1020.4
20260905181535 19 265 11.3 17.7 0.00 0.00 0.00 49 1020.3
20260905180041 18 289 14.5 19.3 0.00 0.00 0.00 51 1020.5
20260905174537 18 281 9.7 22.5 0.00 0.00 0.00 54 1020.3
20260905173041 18 322 11.3 22.5 0.00 0.00 0.00 56 1020.3
20260905171535 18 329 11.3 20.9 0.00 0.00 0.00 57 1020.3
20260905170033 17 311 6.4 17.7 0.00 0.00 0.00 58 1020.4
20260905164534 17 282 12.9 19.3 0.00 0.00 0.00 61 1020.4
20260905163037 16 360 11.3 20.9 0.00 0.00 0.00 65 1020.2
20260905161550 16 355 8.0 17.7 0.00 0.00 0.00 65 1020.4
20260905160035 16 30 11.3 17.7 0.00 0.00 0.00 69 1020.3
20260905154535 15 348 12.9 17.7 0.00 0.00 0.00 74 1020.0
20260905153036 15 344 12.9 24.1 0.00 0.00 0.00 77 1020.1
20260905151535 13 336 12.9 20.9 0.00 0.00 0.00 84 1019.8
20260905150035 12 346 6.4 16.1 0.00 0.00 0.00 85 1020.0
20260905144536 12 346 9.7 16.1 0.00 0.00 0.00 87 1020.1
20260905143036 11 319 9.7 22.5 0.00 0.00 0.00 87 1020.2
20260905141536 11 360 14.5 27.4 0.00 0.00 0.00 86 1019.6
20260905140036 11 295 16.1 30.6 0.00 0.00 0.00 84 1019.5
20260905134535 11 269 17.7 29.0 0.00 0.00 0.00 78 1020.8
20260905133038 12 248 14.5 25.7 0.00 0.00 0.00 76 1020.8
20260905131534 11 288 9.7 14.5 0.00 0.00 0.00 79 1019.2
20260905130034 10 284 14.5 17.7 0.00 0.00 0.00 79 1018.5
20260905124536 10 360 11.3 16.1 0.00 0.00 0.00 78 1018.7
20260905123035 11 292 3.2 8.0 0.00 0.00 0.00 76 1019.3
20260905121534 11 258 9.7 19.3 0.00 0.00 0.00 75 1019.6
20260905120036 11 270 14.5 22.5 0.00 0.00 0.00 74 1019.3
20260905114537 11 259 14.5 20.9 0.00 0.00 0.00 73 1018.9
20260905113038 11 280 11.3 19.3 0.00 0.00 0.00 72 1018.6
20260905111535 11 254 11.3 16.1 0.00 0.00 0.00 72 1018.5
20260905110037 11 259 9.7 16.1 0.00 0.00 0.00 73 1018.4
20260905104540 10 304 6.4 12.9 0.00 0.00 0.00 76 1017.6
20260905103036 10 292 6.4 14.5 0.00 0.00 0.00 75 1017.8
20260905101540 10 292 11.3 14.5 0.00 0.00 0.00 72 1017.8
20260905100108 11 288 12.9 17.7 0.00 0.00 0.00 71 1017.6
20260905094545 12 319 4.8 12.9 0.00 0.00 0.00 68 1017.7
20260905093036 12 330 3.2 8.0 0.00 0.00 0.00 65 1017.8
20260905091545 13 12 6.4 9.7 0.00 0.00 0.00 64 1017.3
20260905090035 13 0 0.0 6.4 0.00 0.00 0.00 66 1017.2
20260905084542 12 317 3.2 6.4 0.00 0.00 0.00 69 1017.1
20260905083044 12 32 6.4 12.9 0.00 0.00 0.00 69 1016.6
20260905081538 13 360 11.3 16.1 0.00 0.00 0.00 64 1016.5
20260905080033 13 305 8.0 12.9 0.00 0.00 0.00 64 1017.3
20260905074533 13 306 8.0 16.1 0.00 0.00 0.00 63 1017.6
20260905073039 12 258 6.4 16.1 0.00 0.00 0.00 65 1017.7
20260905071540 12 275 8.0 11.3 0.00 0.00 0.00 63 1017.7
20260905070036 13 342 8.0 12.9 0.00 0.00 0.00 62 1017.3
20260905064534 12 325 6.4 11.3 0.00 0.00 0.00 65 1017.4
20260905063036 12 294 4.8 9.7 0.00 0.00 0.00 67 1017.3
20260905061537 12 275 3.2 8.0 0.00 0.00 0.00 63 1017.3
20260905060043 12 309 6.4 11.3 0.00 0.00 0.00 64 1017.0
20260905054601 12 312 4.8 8.0 0.00 0.00 0.00 64 1016.6
20260905053033 12 15 8.0 14.5 0.00 0.00 0.00 61 1016.5
20260905051539 13 36 8.0 9.7 0.00 0.00 0.00 60 1016.7
20260905050036 13 346 3.2 9.7 0.00 0.00 0.00 59 1017.1
20260905044535 13 18 8.0 11.3 0.00 0.00 0.00 59 1016.5
20260905043038 13 20 4.8 8.0 0.00 0.00 0.00 59 1016.5
20260905041539 14 39 0.0 4.8 0.00 0.00 0.00 56 1017.0
20260905040040 14 39 4.8 12.9 0.00 0.00 0.00 56 1016.5
20260905034537 15 37 9.7 17.7 0.00 0.00 0.00 54 1015.6
20260905033040 16 22 14.5 22.5 0.00 0.00 0.00 51 1015.4
20260905031538 16 5 16.1 22.5 0.00 0.00 0.00 49 1015.5
20260905030038 16 5 16.1 22.5 0.00 0.00 0.00 48 1015.5